| time (UTC) | temp F | wind direction | speed knots | gust knots | rain 1hr in | rain 24hr in | rain mn in | humidity % | barometer mb |
| 20260831234024 | 63 | 298 | 2.6 | 9.6 | 0.00 | 0.01 | 0.01 | 72 | 1025.4 |
| 20260831233521 | 62 | 277 | 3.5 | 7.8 | 0.00 | 0.01 | 0.01 | 75 | 1025.6 |
| 20260831233021 | 61 | 258 | 2.6 | 7.0 | 0.00 | 0.01 | 0.01 | 78 | 1025.6 |
| 20260831232520 | 60 | 316 | 2.6 | 7.0 | 0.00 | 0.01 | 0.01 | 78 | 1025.8 |
| 20260831232019 | 60 | 302 | 3.5 | 7.8 | 0.00 | 0.01 | 0.01 | 79 | 1025.9 |
| 20260831231516 | 59 | 321 | 2.6 | 5.2 | 0.00 | 0.01 | 0.01 | 80 | 1025.9 |
| 20260831231015 | 59 | 263 | 2.6 | 7.8 | 0.00 | 0.01 | 0.01 | 80 | 1026.0 |
| 20260831230514 | 58 | 278 | 3.5 | 7.8 | 0.00 | 0.01 | 0.01 | 81 | 1026.1 |
| 20260831230012 | 58 | 309 | 3.5 | 7.0 | 0.00 | 0.01 | 0.01 | 82 | 1026.2 |
| 20260831225512 | 58 | 299 | 2.6 | 8.7 | 0.00 | 0.01 | 0.01 | 82 | 1026.2 |
| 20260831225009 | 57 | 317 | 3.5 | 7.8 | 0.00 | 0.01 | 0.01 | 83 | 1026.3 |
| 20260831224508 | 57 | 283 | 4.3 | 7.0 | 0.00 | 0.01 | 0.01 | 83 | 1026.3 |
| 20260831224008 | 57 | 298 | 3.5 | 7.0 | 0.00 | 0.01 | 0.01 | 84 | 1026.4 |
| 20260831223506 | 56 | 259 | 1.7 | 5.2 | 0.00 | 0.01 | 0.01 | 86 | 1026.5 |
| 20260831223006 | 56 | 290 | 1.7 | 7.0 | 0.00 | 0.01 | 0.01 | 87 | 1026.5 |
| 20260831222507 | 55 | 309 | 2.6 | 7.0 | 0.00 | 0.01 | 0.01 | 88 | 1026.5 |
| 20260831222005 | 55 | 269 | 2.6 | 5.2 | 0.00 | 0.01 | 0.01 | 89 | 1026.5 |
| 20260831221508 | 55 | 329 | 2.6 | 5.2 | 0.00 | 0.01 | 0.01 | 90 | 1026.6 |
| 20260831221004 | 54 | 328 | 1.7 | 4.3 | 0.00 | 0.01 | 0.01 | 91 | 1026.6 |
| 20260831220504 | 53 | 319 | 2.6 | 4.3 | 0.00 | 0.01 | 0.01 | 92 | 1026.6 |
| 20260831220004 | 53 | 315 | 1.7 | 3.5 | 0.00 | 0.01 | 0.01 | 93 | 1026.6 |
| 20260831215504 | 52 | 322 | 1.7 | 3.5 | 0.00 | 0.01 | 0.01 | 93 | 1026.6 |
| 20260831215008 | 52 | 319 | 1.7 | 3.5 | 0.00 | 0.01 | 0.01 | 94 | 1026.6 |
| 20260831214503 | 51 | 307 | 1.7 | 4.3 | 0.00 | 0.01 | 0.01 | 95 | 1026.6 |
| 20260831214003 | 51 | 296 | 1.7 | 4.3 | 0.00 | 0.01 | 0.01 | 95 | 1026.5 |
| 20260831213503 | 51 | 306 | 0.9 | 2.6 | 0.00 | 0.01 | 0.01 | 95 | 1026.4 |
| 20260831213004 | 50 | 317 | 1.7 | 2.6 | 0.00 | 0.01 | 0.01 | 95 | 1026.4 |
| 20260831212502 | 50 | 285 | 0.9 | 2.6 | 0.00 | 0.01 | 0.01 | 95 | 1026.5 |
| 20260831212001 | 50 | 289 | 0.0 | 0.9 | 0.00 | 0.01 | 0.01 | 95 | 1026.4 |
| 20260831211501 | 49 | 289 | 0.0 | 2.6 | 0.00 | 0.01 | 0.01 | 95 | 1026.4 |
| 20260831211003 | 49 | 300 | 0.9 | 2.6 | 0.00 | 0.01 | 0.01 | 95 | 1026.4 |
| 20260831210501 | 49 | 283 | 0.9 | 2.6 | 0.00 | 0.01 | 0.01 | 95 | 1026.3 |
| 20260831205600 | 49 | 275 | 0.9 | 2.6 | 0.00 | 0.01 | 0.01 | 95 | 1026.2 |
| 20260831205059 | 49 | 271 | 0.9 | 3.5 | 0.00 | 0.01 | 0.01 | 95 | 1026.2 |
| 20260831204601 | 49 | 263 | 0.9 | 3.5 | 0.00 | 0.01 | 0.01 | 95 | 1026.2 |
| 20260831204059 | 49 | 287 | 1.7 | 2.6 | 0.00 | 0.01 | 0.01 | 95 | 1026.2 |
| 20260831203558 | 49 | 277 | 0.9 | 3.5 | 0.00 | 0.01 | 0.01 | 94 | 1026.2 |
| 20260831203105 | 50 | 275 | 0.9 | 4.3 | 0.00 | 0.01 | 0.01 | 94 | 1026.1 |
| 20260831202558 | 50 | 259 | 1.7 | 4.3 | 0.00 | 0.01 | 0.01 | 94 | 1026.1 |
| 20260831202055 | 50 | 289 | 1.7 | 4.3 | 0.00 | 0.01 | 0.01 | 95 | 1026.0 |
| 20260831201554 | 50 | 294 | 0.9 | 3.5 | 0.00 | 0.01 | 0.01 | 94 | 1026.0 |
| 20260831201054 | 50 | 317 | 0.0 | 0.0 | 0.00 | 0.01 | 0.01 | 94 | 1026.0 |
| 20260831200553 | 50 | 317 | 0.0 | 0.0 | 0.00 | 0.01 | 0.01 | 94 | 1026.0 |
| 20260831200056 | 51 | 317 | 0.0 | 0.0 | 0.00 | 0.01 | 0.01 | 94 | 1026.0 |
| 20260831195550 | 51 | 317 | 0.0 | 0.0 | 0.00 | 0.01 | 0.01 | 94 | 1025.9 |
| 20260831195051 | 51 | 317 | 0.0 | 0.0 | 0.00 | 0.01 | 0.01 | 94 | 1026.0 |
| 20260831194553 | 51 | 317 | 0.0 | 0.0 | 0.00 | 0.01 | 0.01 | 94 | 1025.9 |
| 20260831194049 | 51 | 317 | 0.0 | 0.0 | 0.00 | 0.01 | 0.01 | 94 | 1025.8 |
| 20260831193547 | 52 | 317 | 0.0 | 0.0 | 0.00 | 0.01 | 0.01 | 93 | 1025.8 |
| 20260831193047 | 52 | 317 | 0.0 | 0.0 | 0.00 | 0.01 | 0.01 | 93 | 1025.7 |
| 20260831192545 | 52 | 317 | 0.0 | 0.0 | 0.00 | 0.01 | 0.01 | 94 | 1025.7 |
| 20260831192048 | 53 | 317 | 0.0 | 0.0 | 0.00 | 0.01 | 0.01 | 94 | 1025.7 |
| 20260831191544 | 53 | 317 | 0.0 | 0.0 | 0.00 | 0.01 | 0.01 | 94 | 1025.7 |
| 20260831191044 | 53 | 317 | 0.0 | 0.9 | 0.00 | 0.01 | 0.01 | 94 | 1025.7 |
| 20260831190544 | 53 | 315 | 0.0 | 3.5 | 0.00 | 0.01 | 0.01 | 94 | 1025.7 |
| 20260831185543 | 53 | 322 | 0.0 | 2.6 | 0.00 | 0.01 | 0.01 | 94 | 1025.7 |
| 20260831185043 | 53 | 321 | 0.0 | 3.5 | 0.00 | 0.01 | 0.01 | 94 | 1025.7 |
| 20260831184542 | 53 | 316 | 0.9 | 3.5 | 0.00 | 0.01 | 0.01 | 94 | 1025.7 |
| 20260831184042 | 53 | 305 | 0.9 | 3.5 | 0.00 | 0.01 | 0.01 | 94 | 1025.8 |
| 20260831183542 | 53 | 298 | 0.9 | 2.6 | 0.00 | 0.01 | 0.01 | 94 | 1025.7 |
| 20260831183042 | 53 | 319 | 0.0 | 2.6 | 0.00 | 0.01 | 0.01 | 93 | 1025.8 |
| 20260831182541 | 53 | 350 | 0.0 | 1.7 | 0.00 | 0.01 | 0.01 | 93 | 1025.8 |
| 20260831182041 | 53 | 323 | 0.0 | 1.7 | 0.00 | 0.01 | 0.01 | 94 | 1025.7 |
| 20260831181541 | 53 | 323 | 0.0 | 1.7 | 0.00 | 0.01 | 0.01 | 93 | 1025.8 |
| 20260831181040 | 53 | 290 | 0.0 | 1.7 | 0.00 | 0.01 | 0.01 | 93 | 1025.8 |
| 20260831180049 | 53 | 290 | 0.0 | 1.7 | 0.00 | 0.01 | 0.01 | 93 | 1025.8 |
| 20260831175547 | 53 | 290 | 0.0 | 1.7 | 0.00 | 0.02 | 0.01 | 93 | 1025.8 |
| 20260831175046 | 53 | 290 | 0.0 | 1.7 | 0.01 | 0.02 | 0.01 | 93 | 1025.8 |
| 20260831174547 | 53 | 286 | 0.0 | 2.6 | 0.01 | 0.02 | 0.01 | 93 | 1025.8 |
| 20260831174046 | 53 | 286 | 0.9 | 2.6 | 0.01 | 0.02 | 0.01 | 93 | 1025.8 |
| 20260831173548 | 53 | 288 | 0.0 | 1.7 | 0.01 | 0.02 | 0.01 | 92 | 1025.8 |
| 20260831173046 | 54 | 288 | 0.0 | 2.6 | 0.01 | 0.02 | 0.01 | 92 | 1025.8 |
| 20260831172544 | 54 | 288 | 0.0 | 2.6 | 0.01 | 0.02 | 0.01 | 92 | 1025.8 |
| 20260831172047 | 54 | 287 | 0.9 | 2.6 | 0.01 | 0.02 | 0.01 | 92 | 1025.9 |
| 20260831171543 | 54 | 287 | 0.0 | 2.6 | 0.01 | 0.02 | 0.01 | 92 | 1025.9 |
| 20260831171042 | 54 | 287 | 0.0 | 1.7 | 0.01 | 0.02 | 0.01 | 92 | 1025.9 |
| 20260831170541 | 54 | 287 | 0.0 | 2.6 | 0.01 | 0.02 | 0.01 | 92 | 1025.9 |
| 20260831170040 | 54 | 287 | 0.0 | 2.6 | 0.01 | 0.02 | 0.01 | 92 | 1025.9 |
| 20260831165540 | 55 | 305 | 0.0 | 0.0 | 0.01 | 0.02 | 0.01 | 92 | 1025.9 |
| 20260831165038 | 55 | 298 | 0.0 | 0.0 | 0.00 | 0.01 | 0.00 | 91 | 1026.0 |
| 20260831164554 | 55 | 285 | 0.0 | 1.7 | 0.00 | 0.01 | 0.00 | 91 | 1026.0 |
| 20260831164039 | 55 | 285 | 0.0 | 1.7 | 0.00 | 0.01 | 0.00 | 91 | 1026.1 |
| 20260831163536 | 55 | 289 | 0.0 | 2.6 | 0.00 | 0.01 | 0.00 | 91 | 1026.3 |
| 20260831163040 | 55 | 298 | 0.9 | 2.6 | 0.00 | 0.01 | 0.00 | 91 | 1026.3 |
| 20260831162534 | 56 | 300 | 0.9 | 2.6 | 0.00 | 0.01 | 0.00 | 91 | 1026.4 |
| 20260831162035 | 56 | 288 | 0.0 | 1.7 | 0.00 | 0.01 | 0.00 | 91 | 1026.6 |
| 20260831161534 | 56 | 291 | 0.0 | 1.7 | 0.00 | 0.01 | 0.00 | 91 | 1026.6 |
| 20260831161032 | 56 | 302 | 0.0 | 1.7 | 0.00 | 0.01 | 0.00 | 92 | 1026.6 |
| 20260831160532 | 56 | 301 | 0.0 | 3.5 | 0.00 | 0.01 | 0.00 | 92 | 1026.7 |
| 20260831160031 | 56 | 303 | 1.7 | 3.5 | 0.00 | 0.01 | 0.00 | 92 | 1026.8 |
| 20260831155530 | 56 | 304 | 1.7 | 2.6 | 0.00 | 0.01 | 0.00 | 93 | 1026.8 |
| 20260831155029 | 56 | 310 | 1.7 | 2.6 | 0.00 | 0.01 | 0.00 | 93 | 1026.8 |
| 20260831154530 | 55 | 325 | 0.9 | 3.5 | 0.00 | 0.01 | 0.00 | 93 | 1026.9 |
| 20260831154028 | 55 | 327 | 0.9 | 3.5 | 0.00 | 0.01 | 0.00 | 93 | 1027.0 |
| 20260831153525 | 55 | 332 | 0.0 | 2.6 | 0.00 | 0.01 | 0.00 | 93 | 1027.1 |
| 20260831153027 | 55 | 326 | 0.9 | 3.5 | 0.00 | 0.01 | 0.00 | 93 | 1027.1 |
| 20260831152524 | 55 | 306 | 0.9 | 3.5 | 0.00 | 0.01 | 0.00 | 94 | 1027.2 |
| 20260831152024 | 55 | 319 | 0.9 | 3.5 | 0.00 | 0.01 | 0.00 | 94 | 1027.3 |
| 20260831151524 | 55 | 317 | 1.7 | 3.5 | 0.00 | 0.01 | 0.00 | 94 | 1027.3 |
| 20260831151023 | 55 | 331 | 0.9 | 3.5 | 0.00 | 0.01 | 0.00 | 94 | 1027.4 |
| 20260831150524 | 55 | 323 | 1.7 | 3.5 | 0.00 | 0.01 | 0.00 | 94 | 1027.4 |
| 20260831150021 | 55 | 280 | 0.0 | 1.7 | 0.00 | 0.01 | 0.00 | 94 | 1027.4 |
| 20260831145520 | 55 | 280 | 0.0 | 2.6 | 0.00 | 0.01 | 0.00 | 94 | 1027.5 |
| 20260831145021 | 55 | 303 | 0.0 | 3.5 | 0.00 | 0.01 | 0.00 | 94 | 1027.5 |
| 20260831144520 | 55 | 280 | 0.0 | 2.6 | 0.00 | 0.01 | 0.00 | 94 | 1027.5 |
| 20260831144021 | 55 | 284 | 0.9 | 3.5 | 0.00 | 0.01 | 0.00 | 94 | 1027.6 |
| 20260831143519 | 55 | 278 | 1.7 | 3.5 | 0.00 | 0.01 | 0.00 | 94 | 1027.7 |
| 20260831143021 | 55 | 261 | 0.9 | 3.5 | 0.00 | 0.01 | 0.00 | 94 | 1027.6 |
| 20260831142518 | 55 | 272 | 0.9 | 3.5 | 0.00 | 0.01 | 0.00 | 94 | 1027.7 |
| 20260831142017 | 55 | 292 | 0.0 | 2.6 | 0.00 | 0.01 | 0.00 | 94 | 1027.7 |
| 20260831141517 | 55 | 288 | 0.0 | 2.6 | 0.00 | 0.01 | 0.00 | 94 | 1027.6 |
| 20260831141017 | 55 | 294 | 0.0 | 0.0 | 0.00 | 0.01 | 0.00 | 94 | 1027.6 |
| 20260831140516 | 55 | 294 | 0.0 | 0.0 | 0.00 | 0.01 | 0.00 | 94 | 1027.7 |
| 20260831140014 | 55 | 294 | 0.0 | 0.0 | 0.00 | 0.01 | 0.00 | 94 | 1027.7 |
| 20260831135514 | 55 | 294 | 0.0 | 0.0 | 0.00 | 0.01 | 0.01 | 94 | 1027.7 |
| 20260831135014 | 55 | 294 | 0.0 | 0.0 | 0.00 | 0.01 | 0.01 | 93 | 1027.8 |
| 20260831134513 | 55 | 294 | 0.0 | 0.0 | 0.00 | 0.01 | 0.01 | 93 | 1027.8 |
| 20260831134012 | 55 | 294 | 0.0 | 0.0 | 0.00 | 0.01 | 0.01 | 93 | 1027.8 |
| 20260831133516 | 55 | 294 | 0.0 | 0.0 | 0.00 | 0.01 | 0.01 | 93 | 1027.9 |
| 20260831133012 | 55 | 294 | 0.0 | 0.0 | 0.00 | 0.01 | 0.01 | 93 | 1027.9 |
| 20260831132512 | 55 | 294 | 0.0 | 0.0 | 0.00 | 0.01 | 0.01 | 93 | 1028.0 |
| 20260831132012 | 55 | 294 | 0.0 | 0.0 | 0.00 | 0.01 | 0.01 | 93 | 1028.0 |
| 20260831131512 | 56 | 294 | 0.0 | 0.0 | 0.00 | 0.01 | 0.01 | 92 | 1028.1 |
| 20260831131012 | 56 | 294 | 0.0 | 0.0 | 0.00 | 0.01 | 0.01 | 92 | 1028.2 |
| 20260831130511 | 56 | 294 | 0.0 | 0.0 | 0.00 | 0.01 | 0.01 | 92 | 1028.2 |
| 20260831130015 | 56 | 292 | 0.0 | 0.0 | 0.00 | 0.01 | 0.01 | 92 | 1028.2 |
| 20260831125511 | 56 | 292 | 0.0 | 0.0 | 0.00 | 0.01 | 0.01 | 92 | 1028.3 |
| 20260831125012 | 56 | 292 | 0.0 | 0.0 | 0.00 | 0.01 | 0.01 | 92 | 1028.3 |
| 20260831124510 | 57 | 292 | 0.0 | 0.0 | 0.00 | 0.01 | 0.01 | 92 | 1028.3 |
| 20260831124010 | 57 | 292 | 0.0 | 0.0 | 0.00 | 0.01 | 0.01 | 92 | 1028.3 |
| 20260831123514 | 57 | 292 | 0.0 | 0.0 | 0.00 | 0.01 | 0.01 | 92 | 1028.3 |
| 20260831123010 | 57 | 292 | 0.0 | 0.0 | 0.00 | 0.01 | 0.01 | 92 | 1028.4 |
| 20260831122510 | 57 | 292 | 0.0 | 0.0 | 0.00 | 0.01 | 0.01 | 92 | 1028.4 |
| 20260831122010 | 57 | 281 | 0.0 | 0.0 | 0.00 | 0.01 | 0.01 | 91 | 1028.5 |
| 20260831121510 | 58 | 289 | 0.0 | 0.0 | 0.00 | 0.01 | 0.01 | 91 | 1028.5 |
| 20260831121010 | 58 | 304 | 0.0 | 0.0 | 0.00 | 0.01 | 0.01 | 91 | 1028.6 |
| 20260831120510 | 58 | 289 | 0.0 | 0.0 | 0.00 | 0.01 | 0.01 | 91 | 1028.6 |
| 20260831120015 | 58 | 289 | 0.0 | 3.5 | 0.00 | 0.01 | 0.01 | 91 | 1028.6 |
| 20260831115508 | 58 | 317 | 0.9 | 3.5 | 0.00 | 0.01 | 0.01 | 91 | 1028.7 |
| 20260831115009 | 58 | 302 | 0.0 | 2.6 | 0.00 | 0.01 | 0.01 | 90 | 1028.8 |
| 20260831114523 | 58 | 232 | 0.0 | 2.6 | 0.00 | 0.01 | 0.01 | 90 | 1028.8 |
| 20260831114008 | 58 | 245 | 0.0 | 2.6 | 0.00 | 0.01 | 0.01 | 90 | 1028.8 |
| 20260831113508 | 59 | 19 | 0.0 | 1.7 | 0.00 | 0.01 | 0.01 | 90 | 1028.8 |
| 20260831113008 | 59 | 292 | 0.0 | 4.3 | 0.00 | 0.01 | 0.01 | 90 | 1028.9 |
| 20260831112508 | 59 | 277 | 0.0 | 4.3 | 0.00 | 0.01 | 0.01 | 89 | 1028.9 |
| 20260831112007 | 59 | 313 | 0.9 | 4.3 | 0.00 | 0.01 | 0.01 | 89 | 1028.9 |
| 20260831111506 | 59 | 258 | 0.0 | 3.5 | 0.00 | 0.01 | 0.01 | 89 | 1028.9 |
| 20260831111011 | 59 | 343 | 0.9 | 3.5 | 0.00 | 0.01 | 0.01 | 89 | 1028.8 |
| 20260831110511 | 59 | 309 | 0.0 | 3.5 | 0.00 | 0.01 | 0.01 | 89 | 1028.8 |
| 20260831110006 | 59 | 355 | 0.9 | 5.2 | 0.00 | 0.01 | 0.01 | 89 | 1028.8 |
| 20260831105506 | 59 | 263 | 0.9 | 4.3 | 0.00 | 0.01 | 0.01 | 89 | 1028.8 |
| 20260831105006 | 59 | 286 | 1.7 | 4.3 | 0.00 | 0.01 | 0.01 | 88 | 1028.8 |
| 20260831104506 | 59 | 11 | 0.0 | 3.5 | 0.00 | 0.01 | 0.01 | 88 | 1028.8 |
| 20260831104005 | 59 | 336 | 0.9 | 3.5 | 0.00 | 0.01 | 0.01 | 88 | 1028.8 |
| 20260831103507 | 59 | 284 | 0.0 | 4.3 | 0.00 | 0.01 | 0.01 | 87 | 1028.8 |
| 20260831103005 | 59 | 297 | 0.9 | 4.3 | 0.00 | 0.01 | 0.01 | 87 | 1028.8 |
| 20260831102505 | 59 | 288 | 0.9 | 3.5 | 0.00 | 0.01 | 0.01 | 87 | 1028.8 |
| 20260831102005 | 59 | 254 | 0.9 | 3.5 | 0.00 | 0.01 | 0.01 | 87 | 1028.8 |
| 20260831101505 | 59 | 267 | 0.0 | 2.6 | 0.00 | 0.01 | 0.01 | 86 | 1028.8 |
| 20260831101005 | 60 | 275 | 0.9 | 4.3 | 0.00 | 0.01 | 0.01 | 86 | 1028.8 |
| 20260831100504 | 60 | 317 | 0.9 | 4.3 | 0.00 | 0.01 | 0.01 | 86 | 1028.9 |
| 20260831100004 | 60 | 327 | 0.9 | 3.5 | 0.00 | 0.01 | 0.01 | 86 | 1028.9 |
| 20260831095503 | 60 | 304 | 0.9 | 2.6 | 0.00 | 0.01 | 0.01 | 86 | 1028.9 |
| 20260831095003 | 60 | 271 | 0.9 | 3.5 | 0.00 | 0.01 | 0.01 | 86 | 1028.8 |
| 20260831094504 | 60 | 325 | 0.9 | 3.5 | 0.00 | 0.01 | 0.01 | 86 | 1028.9 |
| 20260831094003 | 60 | 279 | 0.0 | 3.5 | 0.00 | 0.01 | 0.01 | 85 | 1028.9 |
| 20260831093506 | 60 | 282 | 0.9 | 3.5 | 0.00 | 0.01 | 0.01 | 86 | 1028.9 |
| 20260831093004 | 60 | 340 | 0.0 | 4.3 | 0.00 | 0.01 | 0.01 | 86 | 1028.9 |
| 20260831092504 | 60 | 272 | 0.9 | 4.3 | 0.00 | 0.01 | 0.01 | 85 | 1028.9 |
| 20260831092002 | 60 | 347 | 0.0 | 2.6 | 0.00 | 0.01 | 0.01 | 85 | 1028.9 |
| 20260831091507 | 60 | 286 | 0.0 | 6.1 | 0.00 | 0.01 | 0.01 | 85 | 1028.9 |
| 20260831091002 | 60 | 311 | 1.7 | 6.1 | 0.00 | 0.01 | 0.01 | 85 | 1028.9 |
| 20260831090502 | 60 | 290 | 0.9 | 3.5 | 0.00 | 0.01 | 0.01 | 85 | 1028.8 |
| 20260831090002 | 61 | 304 | 0.0 | 5.2 | 0.00 | 0.01 | 0.01 | 85 | 1028.8 |
| 20260831085501 | 61 | 281 | 0.9 | 5.2 | 0.00 | 0.01 | 0.01 | 84 | 1028.8 |
| 20260831085001 | 61 | 296 | 0.9 | 3.5 | 0.00 | 0.01 | 0.01 | 84 | 1028.7 |
| 20260831084501 | 61 | 285 | 0.0 | 3.5 | 0.00 | 0.01 | 0.01 | 84 | 1028.6 |
| 20260831084002 | 61 | 13 | 0.9 | 3.5 | 0.00 | 0.01 | 0.01 | 84 | 1028.6 |
| 20260831083502 | 61 | 339 | 0.0 | 3.5 | 0.00 | 0.01 | 0.01 | 83 | 1028.6 |
| 20260831083110 | 61 | 327 | 0.9 | 2.6 | 0.00 | 0.01 | 0.01 | 83 | 1028.5 |
| 20260831082600 | 61 | 333 | 0.0 | 2.6 | 0.00 | 0.01 | 0.01 | 83 | 1028.5 |
| 20260831082502 | 61 | 333 | 0.9 | 2.6 | 0.00 | 0.01 | 0.01 | 83 | 1028.5 |
| 20260831082002 | 61 | 344 | 0.0 | 2.6 | 0.00 | 0.01 | 0.01 | 82 | 1028.5 |
| 20260831081607 | 61 | 314 | 0.0 | 2.6 | 0.00 | 0.01 | 0.01 | 82 | 1028.5 |
| 20260831081101 | 61 | 355 | 0.0 | 3.5 | 0.00 | 0.01 | 0.01 | 82 | 1028.5 |
| 20260831080604 | 61 | 321 | 0.9 | 4.3 | 0.00 | 0.01 | 0.01 | 81 | 1028.5 |
| 20260831080100 | 61 | 66 | 0.0 | 4.3 | 0.00 | 0.01 | 0.01 | 80 | 1028.6 |
| 20260831075600 | 62 | 325 | 0.0 | 3.5 | 0.00 | 0.01 | 0.01 | 79 | 1028.6 |
| 20260831075100 | 62 | 332 | 0.0 | 3.5 | 0.00 | 0.01 | 0.01 | 78 | 1028.5 |
| 20260831074606 | 62 | 64 | 0.0 | 1.7 | 0.00 | 0.01 | 0.01 | 77 | 1028.5 |
| 20260831074102 | 63 | 341 | 0.0 | 2.6 | 0.00 | 0.01 | 0.01 | 76 | 1028.5 |
| 20260831073559 | 63 | 313 | 0.0 | 2.6 | 0.00 | 0.01 | 0.01 | 75 | 1028.5 |
| 20260831073100 | 64 | 309 | 0.0 | 2.6 | 0.00 | 0.01 | 0.01 | 74 | 1028.4 |
| 20260831072559 | 64 | 212 | 0.0 | 3.5 | 0.00 | 0.01 | 0.01 | 73 | 1028.4 |
| 20260831072058 | 64 | 337 | 0.9 | 3.5 | 0.00 | 0.01 | 0.01 | 72 | 1028.4 |
| 20260831071559 | 65 | 293 | 0.0 | 1.7 | 0.00 | 0.01 | 0.01 | 72 | 1028.3 |
| 20260831071058 | 65 | 42 | 0.0 | 0.9 | 0.00 | 0.01 | 0.01 | 71 | 1028.3 |
| 20260831070558 | 65 | 42 | 0.0 | 2.6 | 0.00 | 0.01 | 0.01 | 70 | 1028.2 |
| 20260831065557 | 65 | 87 | 0.0 | 2.6 | 0.00 | 0.01 | 0.01 | 68 | 1028.3 |
| 20260831065057 | 66 | 76 | 0.0 | 2.6 | 0.00 | 0.01 | 0.01 | 66 | 1028.3 |
| 20260831064558 | 66 | 59 | 0.0 | 4.3 | 0.00 | 0.01 | 0.01 | 65 | 1028.2 |
| 20260831064059 | 66 | 30 | 0.9 | 3.5 | 0.00 | 0.01 | 0.01 | 63 | 1028.2 |
| 20260831063557 | 67 | 360 | 0.0 | 7.0 | 0.00 | 0.01 | 0.01 | 62 | 1028.1 |
| 20260831063057 | 67 | 82 | 0.9 | 7.0 | 0.00 | 0.01 | 0.01 | 60 | 1028.2 |
| 20260831062557 | 67 | 60 | 0.0 | 3.5 | 0.00 | 0.01 | 0.01 | 59 | 1028.1 |
| 20260831062058 | 67 | 123 | 0.9 | 7.0 | 0.00 | 0.01 | 0.01 | 58 | 1028.0 |
| 20260831061558 | 67 | 266 | 2.6 | 7.0 | 0.00 | 0.01 | 0.01 | 57 | 1028.0 |
| 20260831061056 | 67 | 89 | 0.0 | 3.5 | 0.00 | 0.01 | 0.01 | 63 | 1028.0 |
| 20260831060555 | 67 | 24 | 0.9 | 3.5 | 0.00 | 0.01 | 0.01 | 62 | 1028.0 |
| 20260831060055 | 68 | 65 | 0.9 | 3.5 | 0.00 | 0.01 | 0.01 | 61 | 1028.0 |
| 20260831055556 | 68 | 329 | 0.0 | 3.5 | 0.00 | 0.01 | 0.01 | 60 | 1028.0 |
| 20260831055059 | 68 | 328 | 0.9 | 4.3 | 0.00 | 0.01 | 0.01 | 58 | 1027.9 |
| 20260831054556 | 68 | 49 | 1.7 | 7.0 | 0.00 | 0.01 | 0.01 | 58 | 1027.9 |
| 20260831054056 | 68 | 67 | 0.9 | 3.5 | 0.00 | 0.01 | 0.01 | 57 | 1028.0 |
| 20260831053558 | 69 | 68 | 0.9 | 3.5 | 0.00 | 0.01 | 0.01 | 54 | 1027.9 |
| 20260831053055 | 69 | 94 | 0.9 | 7.8 | 0.00 | 0.01 | 0.01 | 53 | 1028.0 |
| 20260831052555 | 69 | 78 | 2.6 | 7.8 | 0.00 | 0.01 | 0.01 | 51 | 1028.0 |
| 20260831052052 | 70 | 90 | 1.7 | 6.1 | 0.00 | 0.01 | 0.01 | 52 | 1028.0 |
| 20260831051602 | 70 | 254 | 0.9 | 3.5 | 0.00 | 0.01 | 0.01 | 53 | 1027.9 |
| 20260831051052 | 70 | 38 | 1.7 | 5.2 | 0.00 | 0.01 | 0.01 | 52 | 1027.9 |
| 20260831050552 | 70 | 71 | 0.9 | 5.2 | 0.00 | 0.01 | 0.01 | 52 | 1027.9 |
| 20260831050052 | 70 | 99 | 0.9 | 5.2 | 0.00 | 0.01 | 0.01 | 52 | 1027.9 |
| 20260831045551 | 71 | 116 | 0.9 | 5.2 | 0.00 | 0.01 | 0.01 | 52 | 1027.9 |
| 20260831045054 | 71 | 82 | 1.7 | 7.0 | 0.00 | 0.01 | 0.01 | 51 | 1027.9 |
| 20260831044609 | 71 | 171 | 0.9 | 7.8 | 0.00 | 0.01 | 0.01 | 52 | 1027.9 |
| 20260831044049 | 71 | 311 | 0.9 | 7.8 | 0.00 | 0.01 | 0.01 | 53 | 1027.9 |
| 20260831043549 | 72 | 61 | 1.7 | 6.1 | 0.00 | 0.01 | 0.01 | 52 | 1027.9 |
| 20260831043049 | 72 | 53 | 1.7 | 4.3 | 0.00 | 0.01 | 0.01 | 52 | 1027.9 |
| 20260831042548 | 72 | 302 | 0.0 | 3.5 | 0.00 | 0.01 | 0.01 | 53 | 1028.0 |
| 20260831042047 | 72 | 79 | 0.9 | 3.5 | 0.00 | 0.01 | 0.01 | 52 | 1028.0 |
| 20260831041558 | 72 | 100 | 0.9 | 5.2 | 0.00 | 0.01 | 0.01 | 53 | 1028.0 |
| 20260831041047 | 73 | 123 | 1.7 | 5.2 | 0.00 | 0.01 | 0.01 | 53 | 1028.1 |
| 20260831040545 | 72 | 325 | 1.7 | 3.5 | 0.00 | 0.01 | 0.01 | 53 | 1028.1 |
| 20260831040044 | 72 | 83 | 0.0 | 2.6 | 0.00 | 0.01 | 0.01 | 55 | 1028.2 |
| 20260831035542 | 72 | 122 | 0.0 | 4.3 | 0.00 | 0.01 | 0.01 | 56 | 1028.2 |
| 20260831035042 | 72 | 294 | 0.9 | 7.0 | 0.00 | 0.01 | 0.01 | 53 | 1028.3 |
| 20260831034541 | 72 | 252 | 0.9 | 7.0 | 0.00 | 0.01 | 0.01 | 54 | 1028.3 |
| 20260831034041 | 72 | 322 | 0.9 | 5.2 | 0.00 | 0.01 | 0.01 | 54 | 1028.3 |
| 20260831033540 | 72 | 250 | 0.9 | 7.0 | 0.00 | 0.01 | 0.01 | 52 | 1028.4 |
| 20260831033041 | 72 | 275 | 2.6 | 7.0 | 0.00 | 0.01 | 0.01 | 52 | 1028.4 |
| 20260831032539 | 72 | 313 | 2.6 | 5.2 | 0.00 | 0.01 | 0.01 | 54 | 1028.5 |
| 20260831032038 | 71 | 190 | 0.9 | 5.2 | 0.00 | 0.01 | 0.01 | 53 | 1028.6 |
| 20260831031539 | 71 | 265 | 1.7 | 7.8 | 0.00 | 0.01 | 0.01 | 55 | 1028.6 |
| 20260831031036 | 72 | 298 | 3.5 | 7.0 | 0.00 | 0.01 | 0.01 | 53 | 1028.7 |
| 20260831030534 | 72 | 328 | 0.0 | 5.2 | 0.00 | 0.01 | 0.01 | 57 | 1028.7 |
| 20260831030033 | 72 | 322 | 1.7 | 5.2 | 0.00 | 0.01 | 0.01 | 56 | 1028.9 |
| 20260831025531 | 71 | 286 | 0.9 | 6.1 | 0.00 | 0.01 | 0.01 | 57 | 1029.0 |
| 20260831025031 | 70 | 293 | 0.9 | 9.6 | 0.00 | 0.01 | 0.01 | 57 | 1029.0 |
| 20260831024530 | 70 | 276 | 1.7 | 9.6 | 0.00 | 0.01 | 0.01 | 58 | 1029.2 |
| 20260831024027 | 70 | 265 | 0.9 | 6.1 | 0.00 | 0.01 | 0.01 | 59 | 1029.2 |
| 20260831023528 | 69 | 335 | 0.9 | 8.7 | 0.00 | 0.01 | 0.01 | 59 | 1029.4 |
| 20260831023027 | 69 | 265 | 3.5 | 8.7 | 0.00 | 0.01 | 0.01 | 59 | 1029.4 |
| 20260831022526 | 70 | 282 | 1.7 | 4.3 | 0.00 | 0.01 | 0.01 | 60 | 1029.5 |
| 20260831022026 | 70 | 5 | 0.9 | 3.5 | 0.00 | 0.01 | 0.01 | 60 | 1029.5 |
| 20260831021525 | 69 | 211 | 0.0 | 4.3 | 0.00 | 0.01 | 0.01 | 62 | 1029.6 |
| 20260831021023 | 69 | 325 | 1.7 | 7.0 | 0.00 | 0.01 | 0.01 | 62 | 1029.7 |
| 20260831020522 | 69 | 245 | 1.7 | 7.0 | 0.00 | 0.01 | 0.01 | 63 | 1029.7 |
| 20260831020022 | 68 | 321 | 1.7 | 7.0 | 0.00 | 0.01 | 0.01 | 62 | 1029.8 |
| 20260831015520 | 69 | 162 | 2.6 | 7.0 | 0.00 | 0.01 | 0.01 | 62 | 1029.9 |
| 20260831015019 | 68 | 257 | 1.7 | 5.2 | 0.00 | 0.01 | 0.01 | 64 | 1030.0 |
| 20260831014519 | 68 | 117 | 0.9 | 7.0 | 0.00 | 0.01 | 0.01 | 63 | 1030.1 |
| 20260831014019 | 68 | 294 | 3.5 | 7.0 | 0.00 | 0.01 | 0.01 | 64 | 1030.2 |
| 20260831013520 | 68 | 281 | 2.6 | 7.0 | 0.00 | 0.01 | 0.01 | 65 | 1030.2 |
| 20260831013017 | 67 | 107 | 0.0 | 6.1 | 0.00 | 0.01 | 0.01 | 65 | 1030.3 |
| 20260831012516 | 67 | 240 | 2.6 | 7.8 | 0.00 | 0.01 | 0.01 | 63 | 1030.3 |
| 20260831012014 | 67 | 217 | 2.6 | 7.0 | 0.00 | 0.01 | 0.01 | 64 | 1030.4 |
| 20260831011515 | 67 | 320 | 2.6 | 5.2 | 0.00 | 0.01 | 0.01 | 63 | 1030.5 |
| 20260831011013 | 67 | 301 | 0.9 | 4.3 | 0.00 | 0.01 | 0.01 | 63 | 1030.5 |
| 20260831010513 | 67 | 298 | 1.7 | 7.8 | 0.00 | 0.01 | 0.01 | 64 | 1030.6 |
| 20260831010014 | 67 | 269 | 2.6 | 7.8 | 0.00 | 0.01 | 0.01 | 64 | 1030.6 |
| 20260831005511 | 67 | 232 | 0.0 | 3.5 | 0.00 | 0.01 | 0.01 | 66 | 1030.6 |
| 20260831005010 | 67 | 76 | 0.0 | 3.5 | 0.00 | 0.01 | 0.01 | 66 | 1030.7 |
| 20260831004509 | 66 | 28 | 1.7 | 3.5 | 0.00 | 0.01 | 0.01 | 68 | 1030.7 |
| 20260831004008 | 66 | 105 | 0.0 | 3.5 | 0.00 | 0.01 | 0.01 | 69 | 1030.7 |
| 20260831003506 | 65 | 304 | 0.9 | 4.3 | 0.00 | 0.01 | 0.01 | 71 | 1030.9 |
| 20260831003005 | 65 | 308 | 1.7 | 8.7 | 0.00 | 0.01 | 0.01 | 72 | 1030.8 |
| 20260831002504 | 65 | 349 | 1.7 | 8.7 | 0.00 | 0.01 | 0.01 | 73 | 1030.9 |
| 20260831002003 | 65 | 317 | 3.5 | 7.0 | 0.00 | 0.01 | 0.01 | 74 | 1030.8 |
| 20260831001502 | 65 | 251 | 2.6 | 7.8 | 0.00 | 0.01 | 0.01 | 75 | 1030.8 |
| 20260831001001 | 64 | 327 | 3.5 | 9.6 | 0.00 | 0.01 | 0.01 | 75 | 1030.7 |
| 20260831000603 | 64 | 319 | 3.5 | 9.6 | 0.00 | 0.01 | 0.01 | 76 | 1030.8 |
| 20260830235559 | 64 | 14 | 3.5 | 8.7 | 0.00 | 0.01 | 0.01 | 79 | 1030.7 |
| 20260830235057 | 63 | 240 | 3.5 | 8.7 | 0.00 | 0.01 | 0.01 | 79 | 1030.8 |
| 20260830234602 | 63 | 273 | 2.6 | 5.2 | 0.00 | 0.01 | 0.01 | 79 | 1030.8 |